Back to catalog

STARLINK-31036

AliveCommunicationsVLEO
NORAD 58533·PAYLOAD·🇺🇸 United States

Launched Dec 8, 2023 from Vandenberg Space Force Base

Loading…

Next Passes (next 24 hours)

TLE

FreshSource: CelesTrak SupGP

Epoch: Sep 15, 2026, 02:41 UTC

1 58533C 23192C   26258.11229167 -.00034483  00000+0 -10181-2 0  2587
2 58533  53.1575 258.9081 0001347  90.2304 262.4198 15.34429150    15

Track STARLINK-31036 in real time with AllMySat

Download on the App Store